,

(GMT )
Prerov

Weather History for LKPO - September, 2012

Change the Weather History Date:

Thursday, September 6, 2012

  Actual Average Record
Temperature  
Mean Temperature 62 °F -  
Max Temperature 68 °F - - ()
Min Temperature 51 °F - - ()
Degree Days  
Heating Degree Days 4    
Growing Degree Days 12 (Base 50)    
Moisture  
Dew Point 50 °F    
Average Humidity 69    
Maximum Humidity 94    
Minimum Humidity 42    
Precipitation  
Precipitation 0.00 in - - ()
Sea Level Pressure  
Sea Level Pressure 30.15 in    
Wind  
Wind Speed 5 mph ()    
Max Wind Speed 15 mph    
Max Gust Speed -    
Visibility 6.2 miles    
Events Rain    
T = Trace of Precipitation, MM = Missing Value Source: Averaged Metar Reports

Daily Weather History Graph

Daily Weather History Graph

Search for Another Location

Airport or City:

Trip Planner

Search our weather history database for the weather conditions in past years. The results will help you decide how hot, cold, wet, or windy it might be!

Date:

Astronomy

Sep. 06, 2012 Rise Set
Actual Time 6:13 AM CEST 7:22 PM CEST
Civil Twilight 5:41 AM CEST 7:55 PM CEST
Nautical Twilight 5:01 AM CEST 8:34 PM CEST
Astronomical Twilight 4:19 AM CEST 9:16 PM CEST
Moon 9:42 PM CEST (9/6) 12:33 PM CEST (9/6)
Length of Visible Light 14h 13m
Length of Day
13h 08m
Waning Gibbous, 70% of the Moon is Illuminated
Sep 6
Waning Gibbous
Sep 8
Last Quarter
Sep 16
New
Sep 22
First Quarter
Sep 30
Full

Hourly Weather History & Observations

Time (CEST) Temp. Dew Point Humidity Pressure Visibility Wind Dir Wind Speed Gust Speed Precip Events Conditions
12:00 AM 62.6 °F 55.4 °F 77% 30.06 in - Variable 2.3 mph - N/A   Clear
1:00 AM 62.6 °F 55.4 °F 77% 30.06 in - Variable 2.3 mph - N/A   Clear
2:00 AM 59.0 °F 55.4 °F 88% 30.06 in - Calm Calm - N/A   Clear
3:00 AM 57.2 °F 55.4 °F 94% 30.06 in - Variable 1.2 mph - N/A   Clear
4:00 AM 59.0 °F 55.4 °F 88% 30.06 in - SSE 1.2 mph - N/A   Clear
5:00 AM 59.0 °F 55.4 °F 88% 30.09 in - Variable 2.3 mph - N/A   Clear
6:00 AM 59.0 °F 57.2 °F 94% 30.09 in 6.2 mi Variable 1.2 mph - N/A   Overcast
7:00 AM 60.8 °F 57.2 °F 88% 30.12 in 6.2 mi NE 8.1 mph - N/A Rain Light Rain
8:00 AM 57.2 °F 53.6 °F 88% 30.12 in 6.2 mi ENE 11.5 mph - N/A Rain Light Rain
9:00 AM 57.2 °F 53.6 °F 88% 30.15 in 6.2 mi ENE 8.1 mph - N/A   Overcast
10:00 AM 60.8 °F 51.8 °F 72% 30.15 in 6.2 mi ENE 8.1 mph - N/A   Partly Cloudy
11:00 AM 62.6 °F 53.6 °F 72% 30.18 in 6.2 mi ENE 9.2 mph - N/A   Scattered Clouds
12:00 PM 62.6 °F 50.0 °F 63% 30.18 in 6.2 mi East 6.9 mph - N/A   Mostly Cloudy
1:00 PM 66.2 °F 51.8 °F 60% 30.18 in 6.2 mi North 3.5 mph - N/A   Mostly Cloudy
2:00 PM 66.2 °F 44.6 °F 46% 30.18 in 6.2 mi NNW 9.2 mph - N/A   Mostly Cloudy
3:00 PM 68.0 °F 46.4 °F 46% 30.18 in - NNW 10.4 mph - N/A   Clear
4:00 PM 68.0 °F 44.6 °F 43% 30.18 in - NNW 13.8 mph - N/A   Clear
5:00 PM 66.2 °F 42.8 °F 43% 30.18 in - NW 15.0 mph - N/A   Clear
6:00 PM 64.4 °F 41.0 °F 42% 30.21 in - NW 15.0 mph - N/A   Clear
7:00 PM 62.6 °F 42.8 °F 48% 30.21 in - NNW 10.4 mph - N/A   Clear
8:00 PM 59.0 °F 42.8 °F 55% 30.24 in - NNW 5.8 mph - N/A   Clear
9:00 PM 57.2 °F 42.8 °F 59% 30.24 in - NNW 3.5 mph - N/A   Clear
10:00 PM 55.4 °F 42.8 °F 63% 30.24 in - Variable 1.2 mph - N/A   Clear
11:00 PM 51.8 °F 44.6 °F 76% 30.27 in - Calm Calm - N/A   Clear